Regional Weather Roundup
Issued by NWS

Home | Current Version | Previous Version | Text Only | Print | Product List | Glossary On
Versions: 1 2 3 4 5 6 7 8 9 10 11 12 13 14 15 16 17 18 19 20 21 22 23 24 25 26 27 28 29 30 31 32 33 34 35 36 37 38 39 40 41 42 43 44 45 46 47 48 49 50
000
ASUS43 KFSD 220410
RWRSD

WEATHER ROUNDUP FOR SOUTH DAKOTA
NATIONAL WEATHER SERVICE SIOUX FALLS SD
1100 PM CDT THU SEP 21 2017

NOTE: "FAIR" INDICATES FEW OR NO CLOUDS BELOW 12,000 FEET WITH NO
SIGNIFICANT WEATHER AND/OR OBSTRUCTIONS TO VISIBILITY.


SDZ001>005-009-010-012>017-220500-
NORTHWEST AND NORTH CENTRAL SOUTH DAKOTA

CITY           SKY/WX    TMP DP  RH WIND       PRES   REMARKS
BUFFALO          N/A     54  36  50 N20       29.76S
FAITH            N/A     59  44  57 N18       29.75R
MOBRIDGE       CLEAR     66  52  60 N13G24    29.70R
$$

SDZ012>016-024>037-041>051-057-063-072>074-220500-
SOUTHWEST AND SOUTH CENTRAL SOUTH DAKOTA

CITY           SKY/WX    TMP DP  RH WIND       PRES   REMARKS
RAPID CTY ARPT CLEAR     59  39  47 N14       29.77R
PIERRE         CLEAR     67  54  63 E8        29.62S
CUSTER         CLEAR     53  35  50 NE12      29.81F
ELLSWORTH AFB  CLEAR     59  40  49 N15       29.77R
PHILIP         LGT RAIN  66  45  46 N24       29.64S
PINE RIDGE     CLEAR     68  41  37 NE7G20    29.68R
SPEARFISH      FAIR      54  41  62 CALM      29.85R
WINNER         FAIR      67  60  78 E7        29.61F
$$

SDZ004>011-016>023-039-040-220500-
NORTHEAST SOUTH DAKOTA

CITY           SKY/WX    TMP DP  RH WIND       PRES   REMARKS
ABERDEEN       CLEAR     66  64  93 NE3       29.69R
WATERTOWN      PTCLDY    72  69  90 SE3       29.72S
BROOKINGS      CLEAR     73  70  90 SE9       29.73S
SISSETON         N/A     70  69  97 S5        29.71R
$$

SDZ017-020-022-023-036>040-048>070-220500-
SOUTHEAST SOUTH DAKOTA

CITY           SKY/WX    TMP DP  RH WIND       PRES   REMARKS
SIOUX FALLS    CLEAR     79  72  79 S10       29.72S
HURON          CLEAR     75  70  84 SE9       29.65S
CHAMBERLAIN    CLEAR     74  67  80 E5        29.62F
MITCHELL       CLEAR     78  71  79 SE10      29.65S
YANKTON        CLEAR     81  72  74 SE15G23   29.69R
$$

ABBREVIATIONS USED IN REMARKS
   TC - TEMPERATURE IN CELSIUS
  WCI - WIND CHILL INDEX
   HX - HEAT INDEX
  VSB - VISIBILITY




USA.gov is the U.S. government's official web portal to all federal, state and local government web resources and services.